• In Russia
  • List of Countries
  • For 7 days
  • Water Temperature
  • Satellite Maps
  • Weather Map
  • Weather Widgets
  • user-avatar
    Login

    Hourly Weather Shusha

    Today, 20 November, Monday

    Time Temperature Precipitation Wind Pressure Humidity
    00:00 +8°C° 0 mm 1 mps 659 mmHg 43%
    01:00 +7°C° 0 mm 2 mps 659 mmHg 42%
    02:00 +7°C° 0 mm 2 mps 659 mmHg 42%
    03:00 +8°C° 0 mm 2 mps 659 mmHg 40%
    04:00 +8°C° 0 mm 2 mps 659 mmHg 41%
    05:00 +7°C° 0 mm 2 mps 659 mmHg 42%
    06:00 +7°C° 0 mm 2 mps 659 mmHg 43%
    07:00 +8°C° 0 mm 2 mps 659 mmHg 40%
    08:00 +10°C° 0 mm 2 mps 659 mmHg 38%
    09:00 +12°C° 0 mm 2 mps 660 mmHg 35%
    10:00 +14°C° 0 mm 2 mps 660 mmHg 33%
    11:00 +15°C° 0 mm 2 mps 660 mmHg 31%
    12:00 +16°C° 0 mm 2 mps 660 mmHg 29%
    13:00 +16°C° 0 mm 2 mps 659 mmHg 30%
    14:00 +15°C° 0 mm 2 mps 659 mmHg 32%
    15:00 +15°C° 0 mm 2 mps 659 mmHg 33%
    16:00 +13°C° 0 mm 2 mps 658 mmHg 38%
    17:00 +12°C° 0 mm 1 mps 658 mmHg 42%
    18:00 +10°C° 0 mm 1 mps 657 mmHg 47%
    19:00 +10°C° 0 mm 1 mps 657 mmHg 48%
    20:00 +10°C° 0 mm 1 mps 657 mmHg 48%
    21:00 +8°C° 0 mm 2 mps 657 mmHg 48%
    22:00 +8°C° 0 mm 2 mps 657 mmHg 48%
    23:00 +8°C° 0 mm 2 mps 656 mmHg 48%

    Tomorrow, 21 November, Tuesday

    Time Temperature Precipitation Wind Pressure Humidity
    00:00 +8°C° 0 mm 2 mps 656 mmHg 48%
    01:00 +8°C° 0 mm 2 mps 656 mmHg 48%
    02:00 +8°C° 0 mm 2 mps 656 mmHg 48%
    03:00 +8°C° 0 mm 2 mps 656 mmHg 48%
    04:00 +7°C° 0 mm 2 mps 655 mmHg 48%
    05:00 +8°C° 0 mm 1 mps 655 mmHg 48%
    06:00 +8°C° 0 mm 1 mps 655 mmHg 48%
    07:00 +9°C° 0 mm 1 mps 655 mmHg 46%
    08:00 +11°C° 0 mm 1 mps 655 mmHg 43%
    09:00 +12°C° 0 mm 1 mps 656 mmHg 40%
    10:00 +13°C° 0 mm 1 mps 655 mmHg 38%
    11:00 +14°C° 0 mm 2 mps 655 mmHg 37%
    12:00 +14°C° 0 mm 2 mps 655 mmHg 35%
    13:00 +14°C° 0.1 mm 2 mps 654 mmHg 38%
    14:00 +13°C° 0.1 mm 2 mps 654 mmHg 41%
    15:00 +13°C° 0.1 mm 1 mps 653 mmHg 43%
    16:00 +12°C° 0 mm 1 mps 653 mmHg 47%
    17:00 +11°C° 0 mm 1 mps 653 mmHg 50%
    18:00 +10°C° 0 mm 1 mps 652 mmHg 54%
    19:00 +9°C° 0 mm 1 mps 652 mmHg 54%
    20:00 +9°C° 0 mm 1 mps 652 mmHg 55%
    21:00 +9°C° 0 mm 1 mps 652 mmHg 56%
    22:00 +8°C° 0 mm 2 mps 651 mmHg 57%
    23:00 +8°C° 0 mm 2 mps 651 mmHg 57%

    Day after tomorrow, 22 November, Wednesday

    Time Temperature Precipitation Wind Pressure Humidity
    00:00 +7°C° 0 mm 2 mps 651 mmHg 58%
    01:00 +7°C° 0 mm 2 mps 651 mmHg 58%
    02:00 +7°C° 0 mm 2 mps 651 mmHg 59%
    03:00 +7°C° 0 mm 2 mps 650 mmHg 59%
    04:00 +7°C° 0 mm 2 mps 650 mmHg 58%
    05:00 +6°C° 0 mm 2 mps 650 mmHg 58%
    06:00 +7°C° 0 mm 1 mps 650 mmHg 57%
    07:00 +8°C° 0 mm 1 mps 650 mmHg 55%
    08:00 +8°C° 0 mm 2 mps 651 mmHg 53%
    09:00 +9°C° 0 mm 2 mps 652 mmHg 51%
    10:00 +9°C° 0 mm 2 mps 652 mmHg 49%
    11:00 +10°C° 0 mm 3 mps 652 mmHg 48%
    12:00 +10°C° 0 mm 4 mps 652 mmHg 46%
    13:00 +8°C° 0.1 mm 4 mps 652 mmHg 49%
    14:00 +7°C° 0.1 mm 4 mps 652 mmHg 52%
    15:00 +7°C° 0.1 mm 4 mps 651 mmHg 55%
    16:00 +7°C° 0.1 mm 3 mps 652 mmHg 59%
    17:00 +4°C° 0.1 mm 3 mps 652 mmHg 63%
    18:00 +3°C° 0.1 mm 3 mps 652 mmHg 68%
    19:00 +3°C° 0.2 mm 3 mps 653 mmHg 69%
    20:00 +2°C° 0.2 mm 3 mps 653 mmHg 70%
    21:00 +2°C° 0.2 mm 3 mps 654 mmHg 71%
    22:00 +3°C° 0.1 mm 2 mps 654 mmHg 70%
    23:00 +2°C° 0.1 mm 2 mps 654 mmHg 70%

    23 November, Thursday

    Time Temperature Precipitation Wind Pressure Humidity
    00:00 +2°C° 0.1 mm 2 mps 654 mmHg 70%
    01:00 +2°C° 0.2 mm 2 mps 654 mmHg 71%
    02:00 +1°C° 0.2 mm 2 mps 654 mmHg 72%
    03:00 +2°C° 0.2 mm 1 mps 654 mmHg 73%
    04:00 +2°C° 0.4 mm 1 mps 654 mmHg 74%
    05:00 +1°C° 0.4 mm 1 mps 654 mmHg 75%
    06:00 +1°C° 0.4 mm 1 mps 655 mmHg 77%
    07:00 +1°C° 0.3 mm 1 mps 655 mmHg 75%
    08:00 +1°C° 0.3 mm 1 mps 655 mmHg 74%
    09:00 +2°C° 0.3 mm 1 mps 656 mmHg 73%
    10:00 +1°C° 0 mm 2 mps 656 mmHg 69%
    11:00 +2°C° 0 mm 2 mps 656 mmHg 65%
    12:00 +3°C° 0 mm 2 mps 656 mmHg 61%
    13:00 +3°C° 0 mm 2 mps 656 mmHg 61%
    14:00 +2°C° 0 mm 2 mps 656 mmHg 62%
    15:00 +2°C° 0 mm 2 mps 656 mmHg 63%
    16:00 +2°C° 0.1 mm 2 mps 656 mmHg 68%
    17:00 +1°C° 0.1 mm 2 mps 656 mmHg 72%
    18:00 +1°C° 0.1 mm 1 mps 656 mmHg 77%
    19:00 +1°C° 0 mm 1 mps 657 mmHg 77%
    20:00 0°C° 0 mm 1 mps 657 mmHg 76%
    21:00 0°C° 0 mm 1 mps 657 mmHg 76%
    22:00 0°C° 0 mm 1 mps 657 mmHg 74%
    23:00 0°C° 0 mm 1 mps 658 mmHg 73%

    24 November, Friday

    Time Temperature Precipitation Wind Pressure Humidity
    00:00 -1°C° 0 mm 1 mps 658 mmHg 72%
    01:00 -1°C° 0 mm 1 mps 658 mmHg 71%
    02:00 -1°C° 0 mm 1 mps 658 mmHg 70%
    03:00 -1°C° 0 mm 1 mps 658 mmHg 69%
    04:00 -1°C° 0 mm 1 mps 658 mmHg 69%
    05:00 -2°C° 0 mm 1 mps 658 mmHg 70%
    06:00 -2°C° 0 mm 1 mps 659 mmHg 70%
    07:00 -1°C° 0 mm 1 mps 659 mmHg 65%
    08:00 0°C° 0 mm 1 mps 660 mmHg 61%
    09:00 +1°C° 0 mm 1 mps 660 mmHg 57%
    10:00 -1°C° 0 mm 2 mps 660 mmHg 55%
    11:00 +1°C° 0 mm 2 mps 660 mmHg 52%
    12:00 +2°C° 0 mm 2 mps 660 mmHg 50%
    13:00 +2°C° 0 mm 2 mps 660 mmHg 52%
    14:00 +1°C° 0 mm 2 mps 659 mmHg 53%
    15:00 +1°C° 0 mm 2 mps 659 mmHg 55%
    16:00 -1°C° 0 mm 2 mps 659 mmHg 59%
    17:00 -1°C° 0 mm 2 mps 659 mmHg 63%
    18:00 0°C° 0 mm 1 mps 659 mmHg 68%
    19:00 0°C° 0 mm 1 mps 660 mmHg 68%
    20:00 0°C° 0 mm 1 mps 660 mmHg 68%
    21:00 0°C° 0 mm 1 mps 660 mmHg 69%
    22:00 -1°C° 0.1 mm 1 mps 660 mmHg 69%
    23:00 -1°C° 0.1 mm 1 mps 660 mmHg 70%

    25 November, Saturday

    Time Temperature Precipitation Wind Pressure Humidity
    00:00 -1°C° 0.1 mm 1 mps 660 mmHg 71%
    01:00 -1°C° 0.1 mm 1 mps 660 mmHg 71%
    02:00 -1°C° 0.1 mm 1 mps 661 mmHg 71%
    03:00 -2°C° 0.1 mm 1 mps 661 mmHg 72%
    04:00 -2°C° 0 mm 1 mps 661 mmHg 71%
    05:00 -2°C° 0 mm 1 mps 661 mmHg 70%
    06:00 -2°C° 0 mm 1 mps 662 mmHg 69%
    07:00 -1°C° 0 mm 1 mps 662 mmHg 64%
    08:00 -1°C° 0 mm 1 mps 663 mmHg 59%
    09:00 -2°C° 0 mm 2 mps 663 mmHg 54%
    10:00 -1°C° 0 mm 2 mps 663 mmHg 49%
    11:00 +1°C° 0 mm 2 mps 663 mmHg 45%
    12:00 +2°C° 0 mm 2 mps 663 mmHg 40%
    13:00 +2°C° 0 mm 2 mps 664 mmHg 40%
    14:00 +2°C° 0 mm 2 mps 664 mmHg 40%
    15:00 +2°C° 0 mm 2 mps 664 mmHg 41%
    16:00 +2°C° 0 mm 1 mps 664 mmHg 44%
    17:00 0°C° 0 mm 1 mps 664 mmHg 48%
    18:00 -1°C° 0 mm 1 mps 664 mmHg 52%
    19:00 -1°C° 0 mm 1 mps 665 mmHg 51%
    20:00 -4°C° 0 mm 2 mps 665 mmHg 51%
    21:00 -4°C° 0 mm 2 mps 665 mmHg 51%
    22:00 -4°C° 0 mm 2 mps 665 mmHg 50%
    23:00 -5°C° 0 mm 2 mps 665 mmHg 49%
    Show more